CW1734 Weather Reports


time (UTC)temp
F
wind
direction
speed
knots
gust
knots
rain 1hr
in
rain 24hr
in
rain mn
in
humidity
%
barometer
mb
20260507112904 59 81 3.5 7.8 0.00 0.00 0.00 64 1015.4
20260507112404 58 122 2.6 10.4 0.00 0.00 0.00 70 1015.4
20260507111905 58 113 3.5 7.8 0.00 0.00 0.00 68 1015.4
20260507111403 58 94 2.6 10.4 0.00 0.00 0.00 67 1015.5
20260507110904 58 116 2.6 7.0 0.00 0.00 0.00 66 1015.5
20260507105904 58 113 2.6 10.4 0.00 0.00 0.00 68 1015.5
20260507105404 58 95 3.5 7.0 0.00 0.00 0.00 67 1015.5
20260507104904 59 103 3.5 7.0 0.00 0.00 0.00 66 1015.5
20260507104404 59 143 2.6 7.8 0.00 0.00 0.00 68 1015.6
20260507103904 57 151 2.6 5.2 0.00 0.00 0.00 68 1015.6
20260507103404 57 101 2.6 6.1 0.00 0.00 0.00 68 1015.6
20260507102904 58 80 5.2 10.4 0.00 0.00 0.00 68 1015.6
20260507102404 57 141 2.6 7.0 0.00 0.00 0.00 67 1015.6
20260507101903 57 127 4.3 8.7 0.00 0.00 0.00 68 1015.7
20260507101404 58 131 4.3 7.8 0.00 0.00 0.00 67 1015.7
20260507100904 58 132 5.2 12.2 0.00 0.00 0.00 68 1015.7
20260507100404 58 132 3.5 7.0 0.00 0.00 0.00 69 1015.7
20260507095404 59 183 2.6 6.1 0.00 0.00 0.00 67 1015.6
20260507094903 58 103 4.3 7.8 0.00 0.00 0.00 68 1015.6
20260507094405 59 103 3.5 7.8 0.00 0.00 0.00 67 1015.6
20260507093903 59 122 5.2 10.4 0.00 0.00 0.00 64 1015.6
20260507093404 59 66 5.2 8.7 0.00 0.00 0.00 67 1015.6
20260507092903 59 76 3.5 7.8 0.00 0.00 0.00 68 1015.6
20260507092403 59 38 3.5 6.1 0.00 0.00 0.00 69 1015.6
20260507091904 58 151 1.7 6.1 0.00 0.00 0.00 67 1015.6
20260507091403 58 56 3.5 7.8 0.00 0.00 0.00 66 1015.6
20260507090904 58 138 2.6 6.1 0.00 0.00 0.00 68 1015.6
20260507090404 58 95 2.6 6.1 0.00 0.00 0.00 67 1015.6
20260507085904 57 166 1.7 10.4 0.00 0.00 0.00 68 1015.6
20260507085404 57 116 3.5 10.4 0.00 0.00 0.00 72 1015.7
20260507084904 56 108 2.6 6.1 0.00 0.00 0.00 73 1015.7
20260507084404 56 96 1.7 6.1 0.00 0.00 0.00 72 1015.6
20260507083904 56 141 2.6 6.1 0.00 0.00 0.00 70 1015.6
20260507083404 58 125 2.6 5.2 0.00 0.00 0.00 73 1015.6
20260507082409 55 163 1.7 7.0 0.00 0.00 0.00 76 1015.6
20260507081404 55 104 4.3 7.0 0.00 0.00 0.00 75 1015.6
20260507080904 56 138 3.5 7.8 0.00 0.00 0.00 75 1015.4
20260507080403 56 182 1.7 6.1 0.00 0.00 0.00 77 1015.4
20260507075904 56 72 1.7 5.2 0.00 0.00 0.00 78 1015.4
20260507075404 55 49 1.7 7.0 0.00 0.00 0.00 79 1015.4
20260507074904 55 184 0.9 4.3 0.00 0.00 0.00 79 1015.4
20260507074404 55 48 4.3 7.8 0.00 0.00 0.00 80 1015.3
20260507073904 55 208 3.5 7.8 0.00 0.00 0.00 79 1015.3
20260507073403 55 137 4.3 7.0 0.00 0.00 0.00 81 1015.3
20260507072904 54 185 1.7 5.2 0.00 0.00 0.00 82 1015.2
20260507071904 53 89 4.3 6.1 0.00 0.00 0.00 83 1015.2
20260507071404 53 118 5.2 8.7 0.00 0.00 0.00 83 1015.2
20260507070903 53 74 1.7 11.3 0.00 0.00 0.00 85 1015.2
20260507065904 52 85 1.7 6.1 0.00 0.00 0.00 88 1015.2
20260507065403 51 54 1.7 6.1 0.00 0.00 0.00 89 1015.2
20260507064903 51 81 4.3 10.4 0.00 0.00 0.00 90 1015.2
20260507064404 50 51 4.3 7.0 0.00 0.00 0.00 90 1015.2
20260507063904 50 71 2.6 6.1 0.00 0.00 0.00 91 1015.2
20260507063404 49 87 0.9 5.2 0.00 0.00 0.00 92 1015.2
20260507062404 48 67 0.9 2.6 0.00 0.00 0.00 92 1015.2
20260507061904 48 29 0.0 4.3 0.00 0.00 0.00 93 1015.1
20260507061403 47 83 1.7 4.3 0.00 0.00 0.00 93 1015.0
20260507060904 46 74 0.0 2.6 0.00 0.00 0.00 93 1015.0
20260507055404 43 339 0.0 0.9 0.00 0.00 0.00 92 1015.0
20260507054904 42 339 0.0 0.0 0.00 0.00 0.00 92 1015.0
20260507054404 42 320 0.0 0.0 0.00 0.00 0.00 92 1015.0
20260507053904 42 320 0.0 0.0 0.00 0.00 0.00 92 1015.0
20260507053404 42 320 0.0 0.0 0.00 0.00 0.00 92 1015.0
20260507052404 41 301 0.0 0.0 0.00 0.00 0.00 92 1014.9
20260507051904 41 308 0.0 0.9 0.00 0.00 0.00 92 1014.9
20260507051404 40 295 0.0 0.0 0.00 0.00 0.00 92 1014.8
20260507050904 39 295 0.0 0.0 0.00 0.00 0.00 92 1014.8
20260507050404 39 295 0.0 0.9 0.00 0.00 0.00 92 1014.8
20260507045905 39 210 0.0 0.0 0.00 0.00 0.00 92 1014.8
20260507045404 39 210 0.0 0.9 0.00 0.00 0.00 92 1014.8
20260507044904 39 141 0.0 0.0 0.00 0.00 0.00 92 1014.8
20260507043904 38 141 0.0 0.0 0.00 0.00 0.00 91 1014.7
20260507043404 38 141 0.0 0.0 0.00 0.00 0.00 92 1014.7
20260507042903 38 141 0.0 0.0 0.00 0.00 0.00 92 1014.7
20260507041404 38 104 0.0 0.0 0.00 0.00 0.00 91 1014.7
20260507040904 38 79 0.0 0.0 0.00 0.00 0.00 91 1014.7
20260507035903 38 79 0.0 0.0 0.00 0.00 0.00 91 1014.7
20260507035403 38 79 0.0 0.0 0.00 0.00 0.00 91 1014.7
20260507034904 39 80 0.0 0.0 0.00 0.00 0.00 91 1014.7
20260507034404 39 80 0.0 0.0 0.00 0.00 0.00 91 1014.7
20260507033904 39 80 0.0 0.0 0.00 0.00 0.00 91 1014.6
20260507033404 39 80 0.0 0.0 0.00 0.00 0.00 91 1014.6
20260507032904 39 80 0.0 0.0 0.00 0.00 0.00 91 1014.6
20260507032404 39 80 0.0 0.0 0.00 0.00 0.00 91 1014.5
20260507031904 39 80 0.0 0.0 0.00 0.00 0.00 91 1014.5
20260507030904 39 80 0.0 0.0 0.00 0.00 0.00 90 1014.5
20260507025904 39 80 0.0 0.0 0.00 0.00 0.00 90 1014.6
20260507025404 39 80 0.0 0.0 0.00 0.00 0.00 90 1014.6
20260507024904 40 80 0.0 0.0 0.00 0.00 0.00 90 1014.4
20260507024403 40 80 0.0 0.0 0.00 0.00 0.00 90 1014.4
20260507023904 41 80 0.0 0.0 0.00 0.00 0.00 90 1014.4
20260507023404 41 80 0.0 0.0 0.00 0.00 0.00 91 1014.4
20260507022904 40 80 0.0 0.0 0.00 0.00 0.00 90 1014.4
20260507022404 40 80 0.0 0.0 0.00 0.00 0.00 90 1014.4
20260507021404 40 80 0.0 0.0 0.00 0.00 0.00 90 1014.4
20260507020904 40 80 0.0 0.0 0.00 0.00 0.00 90 1014.3
20260507020403 40 79 0.0 0.0 0.00 0.00 0.00 90 1014.3
20260507015904 40 80 0.0 0.0 0.00 0.00 0.00 89 1014.3
20260507015404 40 80 0.0 0.0 0.00 0.00 0.00 89 1014.3
20260507014904 40 80 0.0 0.0 0.00 0.00 0.00 90 1014.3
20260507014403 40 80 0.0 0.0 0.00 0.00 0.00 90 1014.3
20260507013404 40 80 0.0 0.0 0.00 0.00 0.00 89 1014.2
20260507012903 41 80 0.0 0.0 0.00 0.00 0.00 88 1014.2
20260507012404 41 80 0.0 0.0 0.00 0.00 0.00 89 1014.2
20260507011903 41 80 0.0 0.0 0.00 0.00 0.00 89 1014.3
20260507011404 41 80 0.0 0.0 0.00 0.00 0.00 88 1014.4
20260507010904 41 80 0.0 0.0 0.00 0.00 0.00 88 1014.4
20260507010404 42 80 0.0 0.0 0.00 0.00 0.00 88 1014.4
20260507005903 42 80 0.0 0.0 0.00 0.00 0.00 88 1014.4
20260507005404 42 80 0.0 0.0 0.00 0.00 0.00 88 1014.3
20260507003904 42 80 0.0 0.0 0.00 0.00 0.00 87 1014.4
20260507002903 43 80 0.0 0.0 0.00 0.00 0.00 87 1014.4
20260507002404 43 80 0.0 0.0 0.00 0.00 0.00 87 1014.4
20260507001903 43 80 0.0 0.0 0.00 0.00 0.00 87 1014.4
20260507001404 43 80 0.0 0.0 0.00 0.00 0.00 87 1014.4
20260506235403 44 80 0.0 0.0 0.00 0.00 0.00 86 1014.5
20260506233904 45 80 0.0 0.0 0.00 0.00 0.00 86 1014.4
20260506233403 45 80 0.0 0.0 0.00 0.00 0.00 86 1014.4
20260506232904 45 80 0.0 0.0 0.00 0.00 0.00 86 1014.4
20260506232404 45 80 0.0 0.0 0.00 0.00 0.00 85 1014.4
20260506231904 46 80 0.0 0.0 0.00 0.00 0.00 85 1014.4
20260506231404 46 80 0.0 0.0 0.00 0.00 0.00 85 1014.4
20260506230903 46 80 0.0 0.0 0.00 0.00 0.00 84 1014.3
20260506230404 46 80 0.0 0.0 0.00 0.00 0.00 83 1014.2
20260506225904 47 80 0.0 0.0 0.00 0.00 0.00 83 1014.2
20260506225404 47 79 0.0 0.0 0.00 0.00 0.00 83 1014.2
20260506224904 47 80 0.0 0.0 0.00 0.00 0.00 83 1014.2
20260506224404 48 79 0.0 0.0 0.00 0.00 0.00 82 1014.2
20260506223904 48 79 0.0 0.0 0.00 0.00 0.00 82 1014.2
20260506223404 48 80 0.0 0.0 0.00 0.00 0.00 81 1014.0
20260506222904 49 80 0.0 0.0 0.00 0.00 0.00 80 1014.0
20260506222404 49 79 0.0 0.0 0.00 0.00 0.00 81 1014.0
20260506221904 49 79 0.0 0.0 0.00 0.00 0.00 80 1014.0
20260506221404 49 80 0.0 0.0 0.00 0.00 0.00 80 1014.0
20260506220904 49 80 0.0 0.0 0.00 0.00 0.00 79 1014.0
20260506220404 50 80 0.0 0.0 0.00 0.00 0.00 79 1014.0
20260506215904 50 80 0.0 0.0 0.00 0.00 0.00 79 1014.0
20260506215403 50 80 0.0 0.0 0.00 0.00 0.00 78 1014.0
20260506214904 50 80 0.0 0.0 0.00 0.00 0.00 78 1014.0
20260506214404 51 80 0.0 0.0 0.00 0.00 0.00 77 1014.0
20260506213904 51 80 0.0 0.9 0.00 0.00 0.00 76 1014.0
20260506213404 51 80 0.9 2.6 0.00 0.00 0.00 76 1014.0
20260506212903 51 77 0.0 2.6 0.00 0.00 0.00 76 1014.0
20260506212403 51 91 0.0 2.6 0.00 0.00 0.00 76 1013.6
20260506211904 52 95 0.9 2.6 0.00 0.00 0.00 76 1013.6
20260506211404 52 54 0.9 4.3 0.00 0.00 0.00 76 1013.6
20260506210904 52 63 0.0 0.0 0.00 0.00 0.00 76 1013.6
20260506205903 52 71 0.0 0.0 0.00 0.00 0.00 76 1013.6
20260506205403 52 71 0.0 0.0 0.00 0.00 0.00 75 1013.6
20260506204904 52 71 0.0 0.0 0.00 0.00 0.00 75 1013.6
20260506204404 52 71 0.0 0.0 0.00 0.00 0.00 75 1013.6
20260506203904 52 75 0.0 0.0 0.00 0.00 0.00 77 1013.6
20260506203404 52 75 0.0 0.0 0.00 0.00 0.00 77 1013.6
20260506202903 52 231 0.0 0.0 0.00 0.00 0.00 78 1013.4
20260506202404 52 232 0.0 0.0 0.00 0.00 0.00 77 1013.4
20260506201904 52 232 0.0 0.0 0.00 0.00 0.00 77 1013.4
20260506201403 53 232 0.0 0.0 0.00 0.00 0.00 76 1013.4
20260506200904 53 232 0.0 0.0 0.00 0.00 0.00 76 1013.4
20260506200404 53 232 0.0 0.0 0.00 0.00 0.00 75 1013.2
20260506194904 53 232 0.0 0.0 0.00 0.00 0.00 74 1013.2
20260506194404 53 232 0.9 0.9 0.00 0.00 0.00 73 1013.1
20260506193904 53 232 0.0 0.0 0.00 0.00 0.00 73 1013.1
20260506193404 54 232 0.0 0.0 0.00 0.00 0.00 72 1013.1
20260506192904 54 232 0.0 0.0 0.00 0.00 0.00 72 1013.1
20260506192404 54 232 0.0 0.0 0.00 0.00 0.00 71 1013.0
20260506191903 54 232 0.0 1.7 0.00 0.00 0.00 70 1013.0
20260506191404 55 233 0.0 1.7 0.00 0.00 0.00 69 1013.0
20260506190904 55 230 0.9 2.6 0.00 0.00 0.00 69 1013.0
20260506190404 55 230 0.9 1.7 0.00 0.00 0.00 68 1013.0
20260506185904 55 229 0.9 2.6 0.00 0.00 0.00 68 1012.9
20260506185404 54 228 1.7 2.6 0.00 0.00 0.00 69 1012.9
20260506184405 55 284 1.7 4.3 0.00 0.00 0.00 71 1012.7
20260506183904 55 247 0.0 0.9 0.00 0.00 0.00 71 1012.7
20260506183403 55 247 0.9 2.6 0.00 0.00 0.00 71 1012.7
20260506182904 55 272 2.6 4.3 0.00 0.00 0.00 71 1012.4
20260506182404 55 260 0.9 1.7 0.00 0.00 0.00 71 1012.4
20260506181904 55 264 1.7 4.3 0.00 0.00 0.00 71 1012.4
20260506181404 55 251 1.7 4.3 0.00 0.00 0.00 70 1012.4
20260506180903 55 266 2.6 4.3 0.00 0.00 0.00 69 1012.4
20260506180403 56 245 1.7 4.3 0.00 0.00 0.00 69 1012.4
20260506175404 56 261 1.7 2.6 0.00 0.00 0.00 66 1012.4
20260506174904 56 276 0.9 2.6 0.00 0.00 0.00 67 1012.4
20260506174404 56 229 0.9 2.6 0.00 0.00 0.00 66 1012.3
20260506173903 56 257 0.9 2.6 0.00 0.00 0.00 67 1012.2
20260506172404 56 225 0.9 2.6 0.00 0.00 0.00 66 1012.3
20260506171903 56 262 0.9 2.6 0.00 0.00 0.00 66 1012.3
20260506171404 56 258 0.9 4.3 0.00 0.00 0.00 66 1012.2
20260506170903 56 273 1.7 4.3 0.00 0.00 0.00 66 1012.2
20260506170403 56 287 1.7 4.3 0.00 0.00 0.00 65 1012.2
20260506165904 57 277 3.5 6.1 0.00 0.00 0.00 64 1012.2
20260506165404 57 281 3.5 4.3 0.00 0.00 0.00 63 1012.2
20260506164904 57 279 4.3 6.1 0.00 0.00 0.00 62 1012.2
20260506164403 57 275 4.3 6.1 0.00 0.00 0.00 62 1012.2
20260506163904 57 315 2.6 7.0 0.00 0.00 0.00 63 1012.2
20260506163404 57 267 4.3 7.8 0.00 0.00 0.00 63 1012.2
20260506162904 58 289 4.3 6.1 0.00 0.00 0.00 60 1012.2
20260506162404 58 277 3.5 7.8 0.00 0.00 0.00 57 1012.2
20260506161904 58 304 4.3 7.0 0.00 0.00 0.00 53 1012.2
20260506161404 58 308 4.3 6.1 0.00 0.00 0.00 53 1012.2
20260506160903 58 310 3.5 4.3 0.00 0.00 0.00 52 1012.2
20260506160403 58 354 0.9 4.3 0.00 0.00 0.00 51 1012.2
20260506155904 58 2 0.9 2.6 0.00 0.00 0.00 51 1012.2
20260506155404 58 352 2.6 5.2 0.00 0.00 0.00 52 1012.2
20260506154904 58 333 2.6 4.3 0.00 0.00 0.00 54 1012.2
20260506154404 58 348 1.7 4.3 0.00 0.00 0.00 52 1012.2
20260506153904 58 37 1.7 5.2 0.00 0.00 0.00 54 1012.3
20260506153404 58 338 4.3 6.1 0.00 0.00 0.00 52 1012.3
20260506152904 58 1 4.3 7.0 0.00 0.00 0.00 51 1012.3
20260506152404 59 341 3.5 5.2 0.00 0.00 0.00 52 1012.3
20260506151903 59 319 2.6 4.3 0.00 0.00 0.00 53 1012.3
20260506151404 59 15 2.6 5.2 0.00 0.00 0.00 52 1012.3
20260506150903 59 5 2.6 4.3 0.00 0.00 0.00 53 1012.3
20260506150404 58 326 3.5 5.2 0.00 0.00 0.00 54 1012.3
20260506145904 58 320 4.3 6.1 0.00 0.00 0.00 51 1012.3
20260506145404 59 323 2.6 4.3 0.00 0.00 0.00 51 1012.3
20260506144904 59 226 1.7 4.3 0.00 0.00 0.00 50 1012.4
20260506144403 59 324 3.5 6.1 0.00 0.00 0.00 52 1012.4
20260506143904 59 246 1.7 4.3 0.00 0.00 0.00 50 1012.4
20260506143404 59 306 3.5 6.1 0.00 0.00 0.00 52 1012.4
20260506142404 59 311 4.3 7.0 0.00 0.00 0.00 50 1012.4
20260506141904 59 328 3.5 6.1 0.00 0.00 0.00 50 1012.4
20260506141404 59 306 4.3 6.1 0.00 0.00 0.00 51 1012.4
20260506140904 59 342 5.2 7.8 0.00 0.00 0.00 49 1012.4
20260506140404 60 300 5.2 10.4 0.00 0.00 0.00 48 1012.4
20260506135903 61 336 7.0 10.4 0.00 0.00 0.00 47 1012.5
20260506135404 61 324 6.1 8.7 0.00 0.00 0.00 48 1012.5
20260506134904 61 294 7.8 10.4 0.00 0.00 0.00 51 1012.5
20260506134404 61 349 5.2 7.0 0.00 0.00 0.00 47 1012.5
20260506133904 61 10 6.1 11.3 0.00 0.00 0.00 50 1012.5
20260506133403 60 314 6.1 10.4 0.00 0.00 0.00 47 1012.5
20260506132404 61 341 5.2 11.3 0.00 0.00 0.00 46 1012.5
20260506131404 61 307 3.5 7.8 0.00 0.00 0.00 47 1012.5
20260506130404 60 13 5.2 11.3 0.00 0.00 0.00 49 1012.5
20260506125903 61 338 4.3 8.7 0.00 0.00 0.00 50 1012.5
20260506125403 60 292 5.2 11.3 0.00 0.00 0.00 54 1012.5
20260506124905 60 283 6.1 8.7 0.00 0.00 0.00 55 1012.5
20260506124404 59 301 7.0 10.4 0.00 0.00 0.00 54 1012.5
20260506123904 60 287 7.0 8.7 0.00 0.00 0.00 54 1012.5
20260506122403 60 317 6.1 8.7 0.00 0.00 0.00 52 1012.5
20260506121903 60 297 7.0 10.4 0.00 0.00 0.00 56 1012.6
20260506121403 60 326 5.2 10.4 0.00 0.00 0.00 54 1012.7
20260506120404 60 282 5.2 11.3 0.00 0.00 0.00 57 1012.7
20260506115403 58 317 5.2 7.8 0.00 0.00 0.00 58 1012.8
20260506114905 59 330 5.2 7.0 0.00 0.00 0.00 56 1012.8
20260506113404 59 284 5.2 13.0 0.00 0.00 0.00 58 1012.8